Location: ????
(33.1659°N, 35.6604°E)
Time: 23:38:39
(UTC+00:00)

FREGAT/IRIS - Pass Details

Date: 20 September 2019
Orbit: 346 x 350 km, 97.0° (Epoch: 21 October)

Event Time Altitude Azimuth Distance (km) Brightness Sun altitude
Exits shadow 16:34:40 21° 68° (ENE) 865 3.8 -12.7°
Drops below altitude 10° 16:36:41 10° 22° (NNE) 1,326 5.2 -13.1°
Sets 16:38:53 0° 5° (N) 2,176 6.4 -13.6°
